User: anonymous   Login
Location: Boundary
(64.0833°N, 141.0167°W)
Time: 04:01:32
(UTC+00:00)
Language:

X-37B - Orbit

View from above orbital plane
View from above orbital plane
View from above satellite
View from above satellite

Ground track
Ground track

The orbit data is extracted from the following two-line orbital elements,

1 45606U 20029A   20317.69947305 0.00000000  00000-0  00000-0 0    03
2 45606  45.0250  15.6821 0003556  15.1085 344.8911 15.60259563    03
Epoch (UTC): 12 November 2020 16:47:14
Eccentricity: 0.0003556
inclination: 45.0250°
perigee height: 384 km
apogee height: 389 km
right ascension of ascending node: 15.6821°
argument of perigee: 15.1085°
revolutions per day: 15.60259563
mean anomaly at epoch: 344.8911°
orbit number at epoch: 0

The dashed part of the orbit path shows where the satellite is in the earth's shadow,  

DLR